Tracking 28125 objects as of 3-Oct-2023
HD Live streaming from Space Station
objects crossing your sky now

STARLINK-30407

Track STARLINK-30407 now!
10-day predictions
STARLINK-30407 is classified as:


NORAD ID: 57823
Int'l Code: 2023-138R
Perigee: 426.1 km
Apogee: 428.0 km
Inclination: 43.0 °
Period: 93.0 minutes
Semi major axis: 6798 km
RCS: Unknown
Launch date: September 9, 2023
Source: United States (US)
Launch site: AIR FORCE EASTERN TEST RANGE (AFETR)
Your satellite tracking list
Your tracking list is empty




NASA's NSSDC Master Catalog

Two Line Element Set (TLE):
1 57823U 23138R   23275.58334491  .00000000  00000-0  60523-5 0  9999
2 57823  43.0006  30.6109 0001397 237.1356  55.6443 15.48904400  4923
Source of the keplerian elements: AFSPC